Ainsworth, NE

5:23 PM CDT on May 24, 2018 (GMT -0500)
Ainsworth Municipal

Weather History for KANW - March, 2012

Change the Weather History Date:

Sunday, March 4, 2012

  Actual Average Record
Temperature  
Mean Temperature 38 °F -  
Max Temperature 45 °F 35 °F 73 °F (2009)
Min Temperature 32 °F 17 °F 2 °F (2015)
Degree Days  
Heating Degree Days 26    
Moisture  
Dew Point 30 °F    
Average Humidity 70    
Maximum Humidity 98    
Minimum Humidity 49    
Precipitation  
Precipitation 0.00 in - - ()
Sea Level Pressure  
Sea Level Pressure 29.91 in    
Wind  
Wind Speed 12 mph (WNW)    
Max Wind Speed 34 mph    
Max Gust Speed 41 mph    
Visibility 10 miles    
Events Snow    
Averages and records for this station are not official NWS values.
T = Trace of Precipitation, MM = Missing Value Source: NWS Daily Summary

Daily Weather History Graph

Daily Weather History Graph

Search for Another Location

Airport or City:

Astronomy

Mar. 04, 2012 Rise Set
Actual Time 7:09 AM CST 6:33 PM CST
Civil Twilight 6:41 AM CST 7:02 PM CST
Nautical Twilight 6:08 AM CST 7:34 PM CST
Astronomical Twilight 5:36 AM CST 8:07 PM CST
Moon 2:44 PM CST (3/4) 4:35 AM CST (3/4)
Length of Visible Light 12h 20m
Length of Day
11h 24m
Waxing Gibbous, 84% of the Moon is Illuminated
Mar 4
Waxing Gibbous
Mar 8
Full
Mar 14
Last Quarter
Mar 22
New
Mar 30
First Quarter

Hourly Weather History & Observations

Time (CST) Temp. Windchill Dew Point Humidity Pressure Visibility Wind Dir Wind Speed Gust Speed Precip Events Conditions
12:15 AM 34.3 °F 28.4 °F 25.7 °F 71% 29.79 in 10.0 mi SW 6.9 mph - N/A   Overcast
12:35 AM 35.1 °F 27.9 °F 25.7 °F 69% 29.79 in 10.0 mi WSW 9.2 mph - N/A   Overcast
12:55 AM 34.7 °F - 28.6 °F 78% 29.80 in 4.0 mi Calm Calm - N/A Snow Light Snow
1:15 AM 33.4 °F - 29.3 °F 85% 29.79 in 10.0 mi Calm Calm - N/A   Overcast
1:35 AM 33.1 °F - 29.5 °F 87% 29.79 in 10.0 mi Calm Calm - N/A   Overcast
1:55 AM 32.5 °F - 30.2 °F 91% 29.79 in 10.0 mi Calm Calm - N/A   Overcast
2:15 AM 32.0 °F 28.7 °F 29.7 °F 91% 29.78 in 10.0 mi South 3.5 mph - N/A   Overcast
2:35 AM 32.0 °F 26.4 °F 30.2 °F 93% 29.78 in 10.0 mi SSW 5.8 mph - N/A   Overcast
2:55 AM 32.2 °F - 30.7 °F 94% 29.78 in 10.0 mi Calm Calm - N/A   Overcast
3:15 AM 32.5 °F 28.1 °F 31.6 °F 96% 29.78 in 10.0 mi WSW 4.6 mph - N/A   Overcast
3:35 AM 32.7 °F 29.6 °F 31.8 °F 96% 29.77 in 10.0 mi SSW 3.5 mph - N/A   Overcast
3:55 AM 32.2 °F 27.7 °F 31.6 °F 98% 29.76 in 10.0 mi SW 4.6 mph - N/A   Overcast
4:15 AM 32.7 °F 26.4 °F 32.0 °F 97% 29.76 in 10.0 mi SSW 6.9 mph - N/A   Overcast
4:35 AM 32.9 °F 27.5 °F 32.0 °F 96% 29.77 in 10.0 mi SW 5.8 mph - N/A   Overcast
4:55 AM 33.4 °F 25.9 °F 32.0 °F 94% 29.77 in 10.0 mi WSW 9.2 mph - N/A   Overcast
5:15 AM 36.5 °F 28.7 °F 31.1 °F 81% 29.77 in 10.0 mi West 11.5 mph - N/A   Overcast
5:35 AM 39.2 °F 30.8 °F 31.1 °F 73% 29.78 in 10.0 mi West 15.0 mph 19.6 mph N/A   Overcast
5:55 AM 40.3 °F 31.6 °F 31.6 °F 71% 29.80 in 10.0 mi WNW 17.3 mph - N/A   Overcast
6:15 AM 40.6 °F 32.0 °F 32.0 °F 71% 29.80 in 10.0 mi West 17.3 mph 23.0 mph N/A   Overcast
6:35 AM 40.5 °F 32.1 °F 32.4 °F 73% 29.81 in 10.0 mi WNW 16.1 mph - N/A   Overcast
6:55 AM 40.1 °F 32.4 °F 32.4 °F 74% 29.82 in 10.0 mi WNW 13.8 mph - N/A   Overcast
7:15 AM 39.4 °F 31.4 °F 32.2 °F 75% 29.83 in 10.0 mi WNW 13.8 mph - N/A   Scattered Clouds
7:35 AM 40.1 °F 32.4 °F 32.7 °F 75% 29.83 in 10.0 mi West 13.8 mph - N/A   Mostly Cloudy
7:55 AM 40.1 °F 32.4 °F 32.5 °F 74% 29.83 in 10.0 mi WNW 13.8 mph 18.4 mph N/A   Overcast
8:15 AM 41.5 °F 33.2 °F 32.9 °F 71% 29.85 in 10.0 mi WNW 17.3 mph 21.9 mph N/A   Overcast
8:35 AM 42.6 °F 34.6 °F 32.9 °F 68% 29.85 in 10.0 mi WNW 17.3 mph 26.5 mph N/A   Mostly Cloudy
8:55 AM 43.2 °F 36.6 °F 32.5 °F 66% 29.88 in 10.0 mi NW 12.7 mph - N/A   Mostly Cloudy
9:15 AM 42.8 °F 33.8 °F 32.7 °F 68% 29.89 in 10.0 mi NW 21.9 mph 29.9 mph N/A   Overcast
9:35 AM 43.2 °F 33.8 °F 33.6 °F 69% 29.90 in 10.0 mi NW 24.2 mph 31.1 mph N/A   Mostly Cloudy
9:55 AM 42.8 °F 33.3 °F 33.4 °F 70% 29.92 in 10.0 mi NW 24.2 mph 35.7 mph N/A   Mostly Cloudy
10:15 AM 42.8 °F 33.1 °F 33.8 °F 70% 29.92 in 10.0 mi NW 25.3 mph 35.7 mph N/A   Mostly Cloudy
10:35 AM 43.5 °F 34.7 °F 33.3 °F 67% 29.94 in 10.0 mi WNW 21.9 mph 36.8 mph N/A   Scattered Clouds
10:55 AM 43.7 °F 34.3 °F 32.2 °F 64% 29.95 in 10.0 mi NW 25.3 mph 34.5 mph N/A   Scattered Clouds
11:15 AM 44.4 °F 35.3 °F 31.6 °F 61% 29.96 in 10.0 mi NW 25.3 mph 31.1 mph N/A   Scattered Clouds
11:35 AM 44.4 °F 34.7 °F 31.8 °F 61% 29.97 in 10.0 mi NW 28.8 mph 36.8 mph N/A   Scattered Clouds
11:55 AM 44.1 °F 34.8 °F 31.5 °F 61% 29.98 in 10.0 mi NW 25.3 mph 36.8 mph N/A   Scattered Clouds
12:15 PM 44.2 °F 34.2 °F 29.8 °F 57% 29.99 in 10.0 mi NNW 29.9 mph 35.7 mph N/A   Clear
12:35 PM 44.6 °F 35.1 °F 29.5 °F 55% 29.99 in 10.0 mi NNW 27.6 mph 38.0 mph N/A   Clear
12:55 PM 44.6 °F 34.7 °F 27.9 °F 52% 30.00 in 10.0 mi NW 29.9 mph 39.1 mph N/A   Clear
1:15 PM 44.4 °F 33.8 °F 28.2 °F 53% 30.01 in 10.0 mi NW 34.5 mph 40.3 mph N/A   Scattered Clouds
1:35 PM 45.0 °F 34.9 °F 29.1 °F 54% 30.01 in 10.0 mi NW 32.2 mph 36.8 mph N/A   Scattered Clouds
1:55 PM 45.0 °F 34.9 °F 28.4 °F 52% 30.02 in 10.0 mi NNW 32.2 mph 39.1 mph N/A   Clear
2:15 PM 44.1 °F 34.4 °F 26.8 °F 51% 30.02 in 10.0 mi NNW 27.6 mph 41.4 mph N/A   Scattered Clouds
2:35 PM 45.0 °F 35.6 °F 27.5 °F 50% 30.03 in 10.0 mi NNW 27.6 mph 38.0 mph N/A   Scattered Clouds
2:55 PM 45.0 °F 35.6 °F 27.0 °F 49% 30.03 in 10.0 mi NNW 27.6 mph 35.7 mph N/A   Mostly Cloudy
3:15 PM 43.7 °F 34.5 °F 28.0 °F 54% 30.04 in 10.0 mi NNW 24.2 mph 35.7 mph N/A   Mostly Cloudy
3:35 PM 42.8 °F 34.0 °F 29.7 °F 60% 30.06 in 10.0 mi NNW 20.7 mph - N/A   Mostly Cloudy
3:55 PM 42.8 °F 34.0 °F 27.7 °F 55% 30.07 in 10.0 mi NW 20.7 mph 26.5 mph N/A   Scattered Clouds
4:15 PM 42.6 °F 33.5 °F 26.8 °F 54% 30.08 in 10.0 mi NNW 21.9 mph 27.6 mph N/A   Scattered Clouds
4:35 PM 41.4 °F 32.7 °F 27.0 °F 57% 30.08 in 10.0 mi North 18.4 mph 26.5 mph N/A   Scattered Clouds
4:55 PM 42.1 °F 33.6 °F 27.3 °F 56% 30.08 in 10.0 mi North 18.4 mph 21.9 mph N/A   Scattered Clouds
5:15 PM 40.8 °F 32.6 °F 27.9 °F 60% 30.09 in 10.0 mi North 16.1 mph - N/A   Clear
5:35 PM 39.7 °F 33.2 °F 28.4 °F 64% 30.10 in 10.0 mi NNE 10.4 mph - N/A   Clear
5:55 PM 38.3 °F 32.5 °F 28.4 °F 68% 30.10 in 10.0 mi NNE 8.1 mph - N/A   Clear
6:15 PM 35.6 °F 29.9 °F 27.5 °F 72% 30.10 in 10.0 mi North 6.9 mph - N/A   Clear
6:35 PM 32.9 °F 27.5 °F 26.6 °F 78% 30.11 in 10.0 mi NNE 5.8 mph - N/A   Clear
6:55 PM 31.3 °F 26.6 °F 26.1 °F 81% 30.11 in 10.0 mi NNE 4.6 mph - N/A   Clear
7:15 PM 30.7 °F - 26.1 °F 83% 30.11 in 10.0 mi Calm Calm - N/A   Clear
7:35 PM 31.5 °F - 26.6 °F 82% 30.12 in 10.0 mi Calm Calm - N/A   Clear
7:55 PM 32.0 °F - 26.6 °F 80% 30.12 in 10.0 mi Calm Calm - N/A   Clear
8:15 PM 28.6 °F - 23.9 °F 83% 30.12 in 10.0 mi Calm Calm - N/A   Clear
8:35 PM 29.5 °F - 25.9 °F 86% 30.12 in 10.0 mi Calm Calm - N/A   Clear
8:55 PM 27.0 °F 21.6 °F 23.9 °F 88% 30.11 in 10.0 mi South 4.6 mph - N/A   Clear
9:15 PM 26.6 °F 21.2 °F 24.8 °F 93% 30.11 in 10.0 mi South 4.6 mph - N/A   Clear
9:35 PM 27.5 °F 22.2 °F 25.7 °F 93% 30.12 in 10.0 mi South 4.6 mph - N/A   Clear
9:55 PM 26.8 °F 22.8 °F 25.2 °F 94% 30.12 in 10.0 mi SSE 3.5 mph - N/A   Clear
10:15 PM 26.4 °F 20.9 °F 24.1 °F 91% 30.11 in 10.0 mi SSE 4.6 mph - N/A   Unknown
10:35 PM 24.8 °F 17.9 °F 23.2 °F 94% 30.11 in 10.0 mi SSE 5.8 mph - N/A   Clear
10:55 PM 24.8 °F 17.9 °F 23.4 °F 94% 30.12 in 10.0 mi South 5.8 mph - N/A   Clear
11:15 PM 25.0 °F 19.3 °F 23.5 °F 94% 30.11 in 10.0 mi South 4.6 mph - N/A   Clear
11:35 PM 25.3 °F 16.7 °F 24.1 °F 95% 30.11 in 10.0 mi South 8.1 mph - N/A   Clear
11:55 PM 26.8 °F 18.5 °F 25.3 °F 94% 30.11 in 10.0 mi South 8.1 mph - N/A   Clear